Погода в Ирхидее

Россия / Иркутская область     53°26′00″N   103°48′05″E
темп.,
°C
ветер,
м/с
пор.,
м/с
влажн.,
%
обл.,
%
осадки,
мм/ч
давл.,
гПа
погр.,
м
22 июня, вт
вт2223:00+13сз61297100 3.2 1006455
02:00+11зсз6998100 4.8 1009496
05:00+10сз3697100 0.4 1011380
08:00+10зсз3594100 0.6 1012369
11:00+11зсз3491100 0.1 1012405
14:00+11зсз2290100 0.3 1011334
17:00+12зюз1187100 0.0 1011415
20:00+13вюв008691 0.0 1010287
23 июня, ср
ср2323:00+12юв1193100 0.0 101122
02:00+11ю1193100 0.0 101026
05:00+11юв119495 0.0 100914
08:00+14юв1284100 0.0 1008282
11:00+18юв2370100 0.0 1007536
14:00+23ю235598 0.0 10061027
17:00+24зсз325569 0.0 1005982
20:00+20зсз2379100 0.0 1006106
24 июня, чт
чт2423:00+16зсз2285100 0.0 100815
02:00+14сз119217 0.0 100814
05:00+12зсз249721 0.1 1009107
08:00+16зсз218559 0.2 1007310
11:00+18зсз437996 0.0 1007617
14:00+21зсз546979 0.1 1006971
17:00+20зсз787873 0.6 1005826
20:00+15зсз4895100 3.4 1006410
25 июня, пт
пт2523:00+14з3698100 3.5 1007392
02:00+14зсз2599100 5.9 1006331
05:00+14зсз1199100 0.6 1006122
08:00+14зсз2499100 0.9 1007211
11:00+16сз2292100 0.2 1007342
14:00+18с2281100 0.3 1007641
17:00+21с126697 0.0 1006871
20:00+20сз228076 0.0 100745
26 июня, сб
сб2623:00+15ссв119193 0.0 100911
02:00+14св11925 0.0 100911
05:00+13всв119311 0.0 101010
08:00+18в12770 0.0 1009246
11:00+23ю23600 0.0 1008980
14:00+26ю24524 0.0 10061081
17:00+28юв55490 0.0 10041707
20:00+23вюв59654 0.0 1004335